Terug naar catalogus

STARLINK-34516

ActiefCommunicatieVLEO
NORAD 64605·PAYLOAD·🇺🇸 United States

Gelanceerd Jun 25, 2025 vanaf Cape Canaveral Space Force Station

Loading…

Volgende Passages (komende 24 uur)

TLE

VersSource: CelesTrak SupGP

Epoch: Sep 14, 2026, 21:21 UTC

1 64605C 25137M   26257.89006944 -.00013127  00000+0 -42198-3 0  2570
2 64605  53.1570 174.6093 0001176  85.9054  65.9896 15.31721090    13

Volg STARLINK-34516 in realtime met AllMySat

Download on the App Store